Wetbulb
59.98 60.15 60.34 60.01 59.21 59.23 59.44 59.49 59.04 58.42 58.05 57.86 57.52 57.38 57.64 57.22 56.00 55.82 53.37 54.18 54.12 61.39 60.66 54.97 54.26 52.47 50.20 47.53 47.56 44.35 38.58 34.88 38.16 38.57 42.48 46.53 45.43 47.93 56.11 56.41 57.42 57.13 57.22 59.43 63.22
60.50 60.88 60.73 60.00 59.14 59.14 59.20 59.15 58.13 57.54 57.64 57.36 57.14 57.16 57.03 56.60 52.89 53.64 59.69 59.95 60.25 61.39 52.25 51.73 51.35 51.26 47.30 46.03 45.67 42.20 37.34 39.67 43.74 42.88 45.18 46.27 44.03 44.90 46.38 53.80 55.15 55.71 59.06 62.06 62.13
60.42 60.25 60.21 59.67 59.38 59.37 59.11 58.34 57.41 57.39 57.46 56.99 56.84 56.95 56.48 55.47 50.53 51.47 59.98 60.57 62.05 60.00 52.45 52.27 52.35 49.25 45.21 45.76 44.44 41.02 39.81 42.70 44.76 44.89 43.75 42.90 44.50 45.46 43.08 44.25 54.12 54.90 55.58 59.29 60.02
59.71 59.49 59.40 59.48 59.74 59.46 58.63 57.35 57.14 57.34 56.98 56.77 57.06 56.95 56.50 52.68 43.52 52.07 60.88 61.61 63.29 58.22 54.26 52.81 50.20 46.40 43.83 43.15 45.19 42.36 45.07 44.37 46.14 46.32 45.32 44.73 45.93 45.49 43.60 47.28 53.11 57.37 57.02 57.89 57.87
58.52 58.42 58.82 59.29 59.63 59.17 58.19 57.03 56.74 56.79 56.32 56.49 57.00 56.95 52.18 46.91 47.94 55.74 60.75 59.98 56.76 55.02 52.11 50.75 47.41 45.72 43.12 43.64 45.58 42.94 44.79 47.30 47.67 47.03 45.51 46.26 45.10 45.04 45.23 51.38 57.42 56.92 56.71 56.71 57.67
58.11 57.98 58.00 58.60 59.12 58.79 57.64 56.41 55.81 55.59 55.59 56.04 56.66 56.47 48.12 43.50 54.64 56.12 55.61 55.76 53.45 51.87 51.60 51.16 48.94 49.47 46.25 45.44 43.79 46.13 46.53 46.98 46.98 47.64 46.52 45.60 45.45 44.60 46.12 56.97 56.06 55.34 54.57 55.37 55.92
58.03 57.61 57.55 58.15 58.61 57.91 56.57 55.36 54.76 54.81 55.34 55.98 56.28 54.05 47.93 48.33 53.75 53.79 55.47 54.46 53.23 53.72 51.43 52.73 50.99 48.55 47.28 45.76 48.35 47.73 43.94 45.52 46.70 46.45 45.45 45.26 43.17 42.82 47.24 56.72 55.01 54.55 54.38 54.39 55.04
58.34 57.78 57.43 57.75 57.60 55.90 54.63 54.14 53.94 54.71 55.25 55.97 56.39 51.47 45.84 55.60 54.35 56.45 54.37 52.19 55.53 54.53 53.85 54.20 53.08 48.65 46.57 47.57 46.57 43.82 42.39 38.46 44.62 45.64 45.64 42.74 39.15 45.07 49.98 54.73 53.61 54.04 54.08 54.52 54.35
57.82 57.51 57.42 57.32 56.23 54.26 53.57 53.38 53.79 54.89 55.49 55.49 51.25 49.13 47.16 58.06 53.78 52.59 51.26 50.79 52.92 53.40 53.24 56.21 52.03 46.89 45.82 41.04 38.91 39.33 35.06 37.68 42.13 43.60 42.73 40.74 39.35 43.48 43.06 50.83 51.62 53.63 54.16 54.69 54.53
57.57 57.91 58.04 57.54 54.41 53.32 52.44 52.64 53.34 54.00 55.13 54.86 53.78 47.32 51.06 50.61 51.82 51.91 50.94 52.10 50.42 50.12 49.90 49.24 45.80 41.67 40.69 38.70 33.99 35.51 36.22 35.78 37.21 41.57 41.95 39.15 39.03 41.69 41.64 42.07 42.82 50.32 52.21 52.88 53.71
57.71 58.24 57.96 55.95 53.86 53.11 49.76 49.24 47.63 46.69 47.84 46.27 47.63 49.36 50.55 53.51 52.38 49.25 50.74 49.74 48.60 46.90 40.98 44.64 40.05 37.60 40.85 41.75 42.79 41.56 39.39 37.80 38.22 41.77 39.16 39.06 37.52 40.03 41.83 40.87 40.90 40.78 42.20 46.91 51.55
57.57 57.82 56.99 54.68 53.53 52.53 48.11 47.76 47.61 47.33 42.38 48.31 47.61 47.58 49.70 49.47 44.13 47.58 50.44 45.13 44.48 39.36 42.45 40.19 37.85 42.86 44.59 44.44 42.86 41.77 39.49 38.30 39.03 41.69 38.39 36.92 35.89 38.97 40.43 41.00 41.45 40.93 41.47 40.89 41.51
57.42 57.02 55.18 53.53 52.12 48.22 46.00 49.95 52.88 50.55 38.54 41.93 47.34 46.43 47.91 48.20 44.43 45.24 47.67 45.48 42.49 39.82 40.11 37.95 41.81 45.67 43.91 42.22 40.88 40.03 37.25 36.65 37.01 37.27 36.55 35.80 35.95 35.22 39.74 40.23 40.73 41.04 41.22 41.42 42.18
56.49 55.30 53.69 52.12 49.04 48.18 47.77 51.52 51.96 48.31 31.99 38.03 44.19 47.08 47.86 47.63 43.50 48.59 49.04 45.66 42.84 39.90 40.67 39.52 43.76 42.28 40.62 40.34 41.22 36.17 41.02 39.90 36.52 33.18 28.85 34.58 29.55 34.54 37.50 38.93 39.30 40.80 41.05 43.10 44.27
55.35 54.35 53.08 52.07 48.04 46.95 50.08 51.75 51.31 46.02 24.15 41.79 44.11 49.66 48.01 44.25 44.90 44.70 48.18 44.76 39.82 40.49 40.19 38.51 39.78 38.75 37.91 38.94 41.02 37.93 40.77 37.85 35.86 31.70 29.03 30.05 27.77 29.71 34.86 35.25 37.94 41.10 44.01 45.30 46.56
54.74 53.86 52.40 49.53 47.81 48.68 51.26 51.05 47.26 31.60 23.64 37.51 43.56 42.32 42.16 43.24 43.08 44.56 44.46 45.58 44.76 40.57 39.48 39.59 41.36 39.79 39.46 40.87 41.07 41.62 37.68 35.71 32.90 30.67 25.12 30.97 29.99 27.91 31.17 36.33 39.41 41.59 43.52 44.34 43.67
54.15 53.31 51.09 50.62 46.43 51.14 51.77 46.54 32.11 25.88 38.50 35.94 37.97 41.58 40.21 39.22 40.95 41.35 40.77 38.69 36.44 32.72 32.66 36.26 36.91 39.46 41.09 36.41 38.95 37.00 32.40 25.57 23.99 23.89 24.50 32.47 28.60 31.64 36.84 40.35 41.03 41.31 43.82 43.32 43.69
52.90 51.85 51.35 51.35 51.18 51.88 49.96 39.92 26.75 33.55 34.08 40.26 38.54 38.74 35.55 37.70 37.42 38.18 37.04 34.99 38.30 36.58 31.17 29.35 28.23 37.20 40.19 37.74 35.24 34.91 33.38 26.58 22.12 21.69 24.52 32.35 26.50 30.80 40.03 41.59 43.57 43.59 43.98 43.97 43.95
51.78 49.36 49.12 49.54 51.16 50.96 44.05 30.63 29.73 33.06 38.75 37.05 38.88 35.33 33.51 36.41 35.91 36.02 34.29 34.20 36.24 36.00 30.50 29.42 30.74 38.17 39.44 39.33 37.96 35.01 31.08 35.34 29.59 28.28 24.19 27.02 30.39 37.30 39.56 39.06 41.66 42.69 42.83 41.81 43.44
48.62 47.23 48.22 51.12 51.34 48.59 39.20 33.58 35.79 40.94 40.89 39.17 34.10 37.04 32.21 34.06 33.54 33.33 33.60 37.32 36.39 37.69 37.10 33.55 27.55 36.50 38.43 38.29 37.86 35.34 36.81 28.73 29.17 22.82 20.51 25.02 27.02 27.70 35.80 36.45 39.41 40.03 41.15 42.92 44.10
47.89 43.61 49.69 51.75 49.83 42.71 33.72 33.66 37.70 41.20 40.92 38.09 35.97 35.45 36.09 34.83 35.16 33.70 34.93 38.10 38.64 37.66 37.97 34.23 29.91 30.01 35.03 33.30 31.89 32.59 31.46 32.65 32.23 28.23 23.21 22.02 25.30 35.83 37.27 37.88 37.42 39.97 42.33 42.85 43.61
45.11 37.31 49.90 49.05 36.37 36.19 32.94 36.12 40.22 38.74 40.90 38.44 38.46 37.36 35.93 36.21 34.24 34.25 33.82 37.29 40.74 38.72 33.21 35.57 30.52 25.06 29.70 36.27 37.42 35.28 33.22 32.97 25.55 25.80 26.70 26.61 24.76 38.19 38.50 39.70 40.39 41.04 40.96 41.72 43.05
41.14 42.45 49.18 46.56 32.53 31.87 36.05 36.64 37.75 36.96 37.87 37.45 36.55 39.14 39.20 35.07 31.73 34.89 36.09 40.77 40.60 38.51 35.17 35.71 28.44 22.48 26.19 30.19 33.18 30.49 32.41 32.63 32.00 30.00 25.56 21.29 22.83 37.73 37.87 37.89 39.81 39.56 40.86 42.75 41.86
40.99 32.89 40.34 42.06 40.61 35.13 33.78 33.76 33.48 39.55 37.91 38.44 36.96 38.41 36.03 33.43 36.28 32.00 34.57 39.20 40.50 39.50 42.42 39.06 29.82 26.83 22.20 26.71 30.30 28.36 31.33 32.49 30.08 24.91 25.53 25.75 27.34 31.48 33.64 35.31 38.66 39.92 40.76 40.46 41.12
39.96 34.52 37.83 31.84 34.97 35.36 35.78 34.50 32.63 32.64 37.26 38.79 34.33 35.60 34.82 30.94 31.97 31.53 35.02 35.87 38.16 40.73 38.87 35.72 28.84 30.80 31.20 32.35 32.43 30.90 30.13 30.68 28.91 29.53 25.30 28.40 29.31 33.28 34.87 34.39 35.63 39.10 40.99 40.68 41.11
34.85 36.22 39.28 36.68 38.62 35.60 35.17 33.54 34.76 34.21 35.75 34.69 34.16 36.38 36.62 32.28 32.96 30.09 34.09 33.38 32.14 36.01 34.99 36.08 28.72 30.70 28.39 32.33 32.20 29.51 31.58 31.30 31.31 31.22 30.49 30.89 30.03 36.95 37.42 37.77 38.30 38.98 39.29 39.10 39.22
41.54 41.94 38.85 36.25 34.60 32.88 32.68 34.84 33.90 35.96 37.03 37.79 36.65 35.33 34.24 35.89 37.70 37.30 37.31 36.79 36.21 34.38 33.20 33.45 30.98 28.52 24.56 30.75 30.80 25.74 29.39 30.36 31.10 32.30 31.29 26.93 31.98 35.17 35.77 37.68 37.65 37.75 38.48 37.52 38.05
MSLP
1020.52 1020.30 1019.90 1019.83 1019.59 1019.29 1019.06 1018.67 1018.29 1017.67 1017.27 1016.79 1016.34 1015.46 1014.55 1013.72 1012.38 1010.98 1010.59 1010.12 1009.87 1009.70 1009.54 1009.10 1008.42 1008.46 1008.37 1008.72 1009.03 1009.73 1010.94 1011.34 1010.33 1009.42 1007.80 1006.33 1005.97 1005.45 1005.78 1006.54 1007.62 1008.55 1008.67 1008.68 1009.52
1020.35 1020.30 1019.94 1019.71 1019.56 1019.35 1019.06 1018.68 1018.29 1017.75 1017.24 1016.63 1016.29 1015.60 1014.79 1013.89 1013.22 1011.22 1009.77 1009.58 1009.76 1009.82 1009.60 1009.58 1009.28 1009.05 1008.97 1008.94 1009.03 1009.60 1010.23 1009.70 1008.79 1008.05 1007.39 1006.67 1006.27 1005.78 1005.95 1006.84 1007.77 1008.86 1009.34 1009.31 1010.01
1020.16 1020.13 1019.84 1019.70 1019.42 1019.39 1019.02 1018.72 1018.25 1017.71 1017.34 1016.77 1016.37 1015.79 1014.93 1014.06 1013.19 1010.43 1009.49 1009.71 1009.85 1009.95 1009.88 1009.71 1009.62 1009.43 1009.44 1009.34 1009.26 1009.43 1009.51 1008.86 1008.12 1007.52 1007.09 1006.81 1006.30 1005.86 1006.08 1006.84 1006.86 1007.90 1009.30 1009.82 1010.28
1020.00 1019.90 1019.80 1019.70 1019.41 1019.29 1019.00 1018.52 1018.03 1017.54 1017.26 1016.98 1016.40 1015.83 1014.79 1014.11 1013.02 1010.04 1009.55 1009.56 1009.51 1009.60 1009.64 1009.47 1009.48 1009.65 1009.75 1009.84 1009.62 1009.67 1008.85 1008.60 1008.16 1007.59 1007.62 1007.16 1006.50 1006.18 1006.14 1005.98 1005.93 1006.87 1008.41 1009.62 1010.15
1019.76 1019.75 1019.60 1019.58 1019.34 1019.18 1018.81 1018.15 1017.74 1017.31 1017.02 1016.83 1016.52 1015.86 1014.93 1014.43 1012.26 1010.03 1009.84 1009.61 1009.33 1009.39 1009.49 1009.44 1009.47 1009.56 1009.85 1010.06 1009.73 1009.53 1009.09 1008.64 1008.06 1007.74 1007.35 1006.89 1006.52 1006.43 1006.19 1006.12 1006.43 1007.43 1008.65 1009.22 1009.58
1019.53 1019.46 1019.40 1019.37 1019.28 1018.98 1018.53 1017.89 1017.38 1017.04 1016.63 1016.62 1016.46 1016.00 1015.74 1014.28 1010.52 1010.23 1010.30 1009.80 1009.55 1009.28 1009.44 1009.23 1009.28 1009.17 1009.51 1009.75 1010.03 1009.47 1009.08 1008.46 1007.62 1007.01 1006.85 1006.73 1006.22 1006.26 1005.86 1006.56 1007.26 1007.84 1008.20 1008.75 1009.14
1019.32 1019.22 1019.17 1019.08 1019.03 1018.73 1018.24 1017.65 1016.88 1016.59 1016.29 1016.18 1016.19 1016.08 1015.61 1012.60 1010.52 1010.50 1010.47 1009.90 1009.48 1009.22 1009.28 1009.23 1009.27 1009.47 1009.61 1009.87 1009.68 1009.61 1009.33 1008.47 1007.51 1007.17 1006.97 1006.50 1006.22 1006.12 1005.81 1006.60 1007.32 1007.95 1008.33 1008.60 1008.87
1019.07 1019.05 1018.91 1018.88 1018.78 1018.54 1017.97 1017.34 1016.40 1015.86 1015.63 1015.66 1015.86 1015.84 1014.23 1010.75 1010.58 1010.50 1009.89 1009.66 1009.24 1009.06 1009.09 1009.01 1009.04 1009.42 1009.79 1009.91 1009.98 1010.17 1009.98 1009.49 1007.94 1007.55 1007.19 1007.07 1006.82 1006.16 1006.48 1007.22 1007.79 1007.94 1008.15 1008.35 1008.70
1018.81 1018.84 1018.84 1018.77 1018.68 1018.45 1017.80 1016.97 1015.76 1015.22 1015.00 1015.35 1015.78 1015.25 1012.76 1010.29 1010.46 1010.07 1009.91 1009.85 1009.53 1009.05 1008.99 1008.83 1009.05 1009.82 1010.22 1010.73 1011.07 1010.93 1010.80 1010.23 1008.90 1007.83 1007.54 1007.33 1007.30 1006.64 1006.78 1007.22 1007.65 1007.81 1007.94 1007.74 1007.78
1018.50 1018.64 1018.69 1018.67 1018.67 1018.34 1017.67 1016.47 1014.86 1014.96 1015.00 1015.19 1014.93 1014.96 1011.85 1010.88 1010.42 1010.13 1009.84 1009.82 1009.83 1009.65 1009.51 1009.54 1010.06 1010.53 1011.24 1011.74 1011.85 1011.51 1011.16 1010.54 1010.19 1008.54 1007.97 1007.81 1007.52 1006.87 1006.65 1006.74 1007.05 1007.12 1007.18 1007.44 1007.46
1018.08 1018.36 1018.50 1018.52 1018.49 1018.44 1017.94 1016.43 1015.92 1015.51 1015.25 1015.26 1014.32 1013.48 1012.02 1011.10 1010.56 1010.01 1009.76 1009.69 1009.85 1010.10 1010.54 1010.54 1010.95 1010.93 1010.90 1011.15 1011.15 1011.26 1011.20 1010.88 1009.94 1008.93 1008.65 1008.33 1008.04 1007.43 1006.67 1006.61 1006.37 1006.28 1006.61 1006.49 1006.35
1017.59 1018.13 1018.29 1018.43 1018.45 1018.58 1018.78 1018.05 1017.47 1017.67 1015.68 1014.12 1013.03 1012.72 1011.64 1011.49 1010.87 1009.92 1009.56 1010.03 1009.98 1010.45 1010.84 1011.34 1010.66 1010.25 1010.56 1010.88 1011.05 1010.97 1011.03 1010.45 1009.75 1009.00 1008.97 1008.57 1008.17 1007.68 1007.12 1006.45 1005.96 1005.96 1005.93 1005.89 1005.96
1017.12 1017.72 1018.18 1018.48 1018.40 1018.60 1018.66 1017.80 1017.29 1017.41 1017.11 1013.18 1012.30 1011.70 1010.77 1011.07 1010.68 1009.78 1009.55 1009.61 1010.07 1010.57 1011.02 1011.31 1010.27 1010.06 1010.56 1010.32 1010.66 1010.50 1010.45 1010.13 1009.81 1009.34 1009.14 1008.80 1007.65 1007.55 1006.87 1006.46 1006.11 1006.23 1005.85 1005.81 1006.04
1016.71 1017.32 1017.93 1018.41 1018.72 1018.42 1018.31 1017.49 1017.43 1017.47 1017.05 1013.37 1011.52 1010.06 1010.10 1010.33 1010.24 1009.40 1009.28 1009.57 1009.96 1010.39 1010.76 1011.09 1010.21 1010.15 1009.81 1009.89 1009.75 1009.85 1009.37 1009.55 1009.87 1010.18 1010.29 1010.04 1008.21 1008.21 1007.33 1006.60 1006.12 1005.93 1006.50 1006.53 1006.21
1016.28 1016.85 1017.43 1017.82 1018.07 1018.29 1017.72 1017.45 1017.45 1017.59 1016.57 1012.15 1010.69 1009.61 1009.57 1010.22 1010.20 1009.34 1009.16 1009.45 1010.04 1010.31 1010.74 1010.45 1009.93 1009.61 1009.58 1009.43 1009.19 1009.32 1009.22 1009.52 1010.02 1010.58 1010.95 1010.85 1010.74 1008.03 1007.73 1007.64 1007.44 1007.47 1007.43 1007.41 1006.85
1015.62 1016.21 1017.20 1017.75 1018.18 1017.57 1017.59 1017.33 1017.88 1018.09 1015.50 1012.00 1010.62 1010.13 1010.23 1010.24 1010.12 1009.75 1009.64 1009.74 1009.92 1010.44 1010.66 1010.39 1009.58 1009.44 1008.87 1008.72 1008.79 1008.80 1009.43 1010.02 1010.98 1011.52 1011.37 1010.78 1010.76 1008.59 1008.45 1008.55 1008.07 1007.93 1008.05 1008.11 1007.70
1014.88 1015.58 1016.17 1016.50 1016.54 1016.74 1017.43 1017.86 1018.60 1017.21 1014.11 1012.35 1011.43 1010.97 1010.82 1010.81 1010.55 1010.20 1010.34 1010.53 1010.61 1010.83 1011.06 1010.84 1010.15 1009.18 1008.78 1008.76 1008.82 1009.14 1010.03 1011.11 1011.55 1012.04 1011.31 1010.61 1010.70 1008.97 1008.56 1008.53 1008.78 1008.71 1008.79 1008.95 1008.95
1014.01 1015.14 1015.69 1015.80 1016.19 1016.32 1017.38 1018.71 1018.21 1015.45 1013.95 1012.61 1012.02 1011.53 1011.49 1011.26 1011.07 1011.01 1010.87 1011.08 1010.81 1011.19 1011.57 1011.19 1010.21 1009.40 1009.15 1009.32 1009.40 1009.72 1010.47 1011.80 1011.70 1012.07 1011.72 1011.14 1010.31 1009.28 1009.20 1009.15 1009.12 1009.02 1009.23 1009.61 1009.78
1013.66 1015.34 1015.65 1015.97 1015.99 1016.36 1017.14 1018.29 1016.10 1015.11 1013.82 1013.33 1012.58 1012.23 1012.02 1012.04 1012.05 1011.89 1011.76 1011.79 1012.00 1011.98 1012.29 1011.62 1010.71 1009.74 1009.41 1009.38 1009.82 1010.16 1010.92 1011.36 1012.01 1012.45 1012.36 1011.16 1010.23 1009.61 1009.77 1009.66 1009.49 1009.36 1009.53 1009.80 1010.19
1013.63 1014.83 1014.92 1015.42 1015.90 1016.63 1017.31 1016.66 1015.70 1014.57 1014.17 1013.70 1013.15 1013.09 1012.99 1012.90 1012.88 1012.88 1012.50 1012.22 1012.45 1012.52 1012.35 1012.39 1011.71 1010.50 1010.05 1009.94 1010.20 1010.35 1011.01 1011.86 1012.57 1013.09 1012.74 1011.56 1010.79 1010.00 1010.05 1010.20 1010.14 1010.03 1009.88 1009.62 1009.84
1013.42 1014.39 1014.62 1015.34 1015.71 1016.73 1016.54 1015.78 1014.90 1014.66 1014.64 1014.30 1013.77 1013.53 1013.43 1013.40 1013.52 1013.45 1013.01 1012.69 1012.61 1012.66 1012.52 1012.69 1012.72 1011.99 1011.37 1010.93 1010.84 1011.03 1011.29 1012.19 1012.76 1012.89 1012.60 1012.28 1010.94 1010.25 1010.47 1010.21 1010.28 1010.41 1010.46 1010.37 1010.07
1013.37 1014.31 1014.29 1014.72 1016.26 1016.44 1015.91 1015.71 1014.89 1014.58 1014.94 1014.46 1014.40 1014.05 1013.72 1013.71 1013.67 1013.57 1013.21 1013.01 1012.89 1013.15 1013.50 1013.71 1013.49 1012.93 1012.08 1011.46 1011.18 1011.32 1011.52 1012.11 1012.97 1012.99 1012.84 1012.55 1011.00 1010.16 1010.51 1010.45 1010.23 1010.07 1010.05 1010.04 1010.54
1012.94 1013.94 1014.12 1013.82 1015.34 1015.70 1015.99 1015.37 1015.17 1015.01 1014.84 1014.85 1014.76 1014.39 1014.20 1014.17 1014.27 1013.72 1013.51 1013.09 1013.34 1013.72 1014.07 1014.19 1014.40 1014.07 1012.62 1012.52 1012.06 1011.98 1012.18 1012.56 1013.21 1013.40 1013.34 1013.32 1011.64 1010.71 1010.35 1010.24 1009.67 1009.35 1009.57 1009.65 1009.78
1012.07 1014.06 1014.07 1014.44 1014.10 1014.64 1015.11 1015.07 1015.42 1015.16 1015.18 1015.28 1014.90 1014.79 1015.18 1014.89 1014.39 1013.94 1013.95 1013.78 1013.83 1014.04 1014.24 1014.51 1014.97 1015.41 1014.48 1013.89 1013.89 1013.24 1012.66 1012.99 1013.55 1013.47 1013.37 1012.87 1012.35 1011.16 1010.78 1010.18 1009.41 1009.10 1008.93 1009.49 1009.55
1010.28 1011.60 1011.46 1012.70 1013.46 1013.79 1013.98 1014.95 1015.06 1015.23 1015.40 1015.30 1015.25 1015.08 1015.12 1015.37 1014.80 1014.37 1014.31 1014.21 1014.45 1014.45 1014.42 1014.71 1014.76 1015.35 1014.20 1013.88 1013.61 1013.02 1012.32 1013.09 1013.22 1012.66 1012.67 1011.98 1011.44 1010.48 1009.81 1009.48 1009.39 1009.32 1009.38 1009.32 1009.13
1009.09 1009.99 1010.94 1011.50 1012.48 1013.24 1013.70 1014.18 1014.87 1015.03 1015.26 1014.87 1014.97 1014.83 1015.35 1015.52 1015.35 1015.15 1015.00 1015.00 1014.78 1014.82 1014.92 1014.82 1014.60 1015.08 1013.93 1014.21 1013.60 1012.67 1012.25 1012.67 1012.30 1012.02 1011.34 1011.03 1010.30 1009.54 1009.27 1009.27 1009.53 1009.73 1010.10 1010.04 1009.87
1008.44 1008.90 1009.22 1011.61 1011.98 1012.67 1012.98 1013.72 1014.24 1014.90 1014.73 1014.66 1014.92 1015.11 1015.41 1015.63 1015.73 1015.37 1015.43 1015.23 1015.01 1015.22 1015.24 1015.24 1015.43 1015.60 1014.00 1014.00 1013.62 1012.39 1011.88 1011.53 1011.22 1010.74 1010.67 1010.24 1009.36 1009.16 1009.14 1009.12 1009.30 1009.84 1010.12 1010.01 1009.76
Wind_Speed
9 10 10 11 11 12 13 12 13 13 14 16 21 23 25 26 25 3 3 3 3 6 5 8 5 5 3 1 3 4 4 1 5 4 6 7 4 5 3 6 3 4 1 1 22
9 10 10 10 11 12 13 13 14 14 15 16 19 23 25 24 5 5 6 6 4 7 6 7 8 10 5 1 1 4 4 8 6 5 5 6 3 3 2 2 1 3 7 16 20
8 10 10 11 11 13 13 15 14 14 16 15 17 21 24 15 5 3 3 5 4 3 3 2 4 1 3 5 3 0 4 3 4 5 2 5 4 2 2 3 8 9 14 16 17
8 9 10 11 11 12 14 14 14 15 16 15 15 19 24 4 6 2 3 6 5 2 3 5 4 6 3 5 4 5 6 3 5 4 5 6 7 5 5 8 2 9 18 19 20
7 9 9 11 11 12 13 14 15 15 15 14 13 16 8 5 11 6 7 9 6 2 3 3 4 2 3 3 6 4 4 8 7 10 8 5 9 6 7 5 8 16 16 17 17
8 8 8 9 12 13 13 15 17 16 16 14 10 11 2 7 5 5 10 11 2 2 6 4 1 4 1 2 1 4 7 12 8 12 7 6 8 6 4 6 8 13 18 17 18
9 8 8 8 11 13 14 16 19 18 16 13 8 1 2 18 4 7 7 4 3 0 2 2 2 4 1 7 1 5 7 9 7 5 6 5 8 8 5 7 10 11 11 13 15
9 9 8 8 11 12 15 17 21 21 18 12 6 3 9 5 3 7 4 6 4 2 1 5 2 1 2 2 8 5 3 5 5 5 4 2 9 8 4 6 9 10 9 12 15
9 8 8 9 9 12 16 20 24 19 12 4 4 3 11 7 2 2 2 5 7 3 3 4 2 1 2 2 5 4 3 2 10 1 2 1 7 4 3 7 9 9 11 12 12
9 8 8 8 9 11 17 22 20 7 4 4 2 2 5 2 3 6 4 3 3 5 5 3 4 2 3 4 5 3 4 4 6 7 7 5 5 10 5 5 7 9 10 10 9
9 8 7 5 7 10 10 7 8 6 5 4 9 10 17 9 3 4 7 1 2 2 2 3 1 8 11 9 5 6 4 7 7 7 3 6 5 11 11 6 10 9 10 11 15
10 9 7 5 5 9 3 2 2 3 14 12 17 15 15 3 6 8 5 6 3 3 2 3 9 9 5 5 8 9 9 12 7 5 4 7 9 12 9 9 8 7 11 10 6
11 9 8 3 4 3 2 3 1 3 4 9 5 5 4 8 5 6 4 3 3 2 4 6 6 4 6 8 6 6 8 5 7 4 5 6 10 4 7 7 6 8 10 10 8
13 12 9 5 1 2 3 1 1 3 4 10 4 5 4 3 4 5 4 4 0 3 3 6 7 5 2 6 4 4 5 6 4 1 4 3 17 6 8 13 8 9 9 10 10
15 14 12 7 3 3 2 1 1 4 7 3 2 1 2 3 5 0 2 2 4 4 4 8 4 2 3 4 1 7 3 5 2 3 3 2 4 2 3 7 8 10 8 10 14
18 17 14 4 2 3 2 3 4 7 9 6 0 1 1 1 2 3 0 2 1 2 3 9 3 3 8 5 6 5 3 2 4 2 7 7 10 5 1 4 7 7 8 8 10
21 20 12 7 6 7 3 3 3 5 4 3 1 2 3 2 2 3 4 2 3 3 2 5 5 5 4 3 3 3 5 4 5 0 8 2 2 9 1 4 4 6 6 7 8
23 20 5 3 4 8 4 4 8 6 7 3 3 3 2 4 2 4 2 3 4 4 2 4 7 3 3 2 3 3 6 6 7 4 5 3 6 5 4 3 4 5 5 6 6
23 3 5 4 6 2 7 5 10 8 3 1 2 2 2 2 3 6 3 3 6 7 2 3 5 2 2 2 2 2 3 2 2 1 4 3 5 3 2 5 7 6 6 6 6
9 5 5 6 5 4 6 9 7 3 2 1 5 3 1 2 3 4 3 3 2 1 2 3 7 5 2 0 2 3 2 3 2 4 6 4 6 5 2 2 4 4 3 6 5
4 5 5 5 4 4 9 8 8 6 2 2 2 3 5 2 3 3 3 1 3 4 3 2 3 4 3 2 5 3 1 1 2 4 6 11 10 3 2 5 4 1 5 8 6
4 6 8 10 5 3 7 7 7 5 3 0 3 3 5 5 4 3 6 5 3 2 3 3 3 5 9 7 7 6 6 7 5 9 4 3 8 4 4 1 4 6 8 3 10
7 3 4 10 9 6 5 11 3 5 4 4 5 2 2 3 3 6 4 1 6 3 3 4 4 7 9 3 5 3 3 3 2 2 3 1 7 4 16 21 16 8 5 16 4
6 5 2 5 3 10 12 11 9 11 7 4 4 3 6 7 5 4 2 2 4 2 6 4 4 7 13 12 5 17 19 12 3 5 12 17 19 17 12 15 18 6 7 2 2
4 5 5 12 12 15 14 11 11 8 8 6 8 13 8 7 6 10 5 2 2 3 4 6 13 10 17 17 18 20 19 5 10 15 13 17 20 20 14 9 7 5 5 3 2
7 7 4 8 15 12 13 10 9 13 8 9 9 1 5 6 6 4 5 3 6 4 5 4 11 4 22 13 15 20 17 8 12 15 16 18 21 20 8 3 4 5 5 5 6
2 2 7 7 9 9 9 11 14 8 6 8 7 5 6 6 3 3 5 3 5 3 6 5 4 2 20 6 9 13 12 14 13 15 11 13 16 8 7 9 7 6 6 8 8
Wind_Direction
311 319 325 332 336 336 333 331 332 333 329 333 331 330 327 328 322 321 9 289 273 344 320 304 353 352 67 15 110 125 72 222 247 196 252 303 351 331 61 95 49 8 233 243 143
307 313 321 330 329 330 327 330 331 332 328 335 333 327 325 332 312 311 257 252 303 348 359 6 336 351 353 280 155 110 138 224 221 211 281 300 287 290 93 135 201 35 40 128 147
300 306 316 324 327 327 326 326 325 328 323 328 330 327 322 330 312 259 235 280 338 344 296 297 288 321 326 355 6 212 196 211 284 243 32 267 285 230 188 227 210 193 167 160 164
294 301 312 319 323 322 318 318 316 321 318 322 329 325 321 338 325 274 297 279 296 275 300 332 355 350 336 347 327 332 245 239 299 330 336 294 305 282 195 234 287 174 161 165 178
282 291 306 314 315 314 311 307 308 314 312 315 329 329 359 354 252 288 349 314 307 313 324 331 17 28 319 312 330 207 323 311 258 260 235 245 243 244 262 262 102 135 159 179 184
271 284 297 304 309 303 303 306 307 309 308 310 324 325 32 299 276 348 345 321 300 48 347 0 299 249 245 288 150 305 293 291 292 294 235 207 265 166 254 133 131 161 181 188 195
269 277 288 302 303 302 306 307 304 304 302 297 294 264 146 250 298 339 300 259 294 90 32 314 299 351 126 322 354 273 307 327 331 308 307 179 300 229 206 163 168 200 201 200 197
264 274 283 297 300 306 309 306 300 299 303 283 254 163 236 247 272 304 287 316 297 285 242 260 234 225 203 310 346 337 20 339 303 344 302 118 279 348 95 140 220 213 209 210 212
259 269 286 300 307 311 313 307 296 303 306 175 128 166 269 292 242 341 328 305 310 315 316 286 104 189 38 54 351 355 256 270 317 170 355 107 286 258 20 183 247 241 238 222 215
249 260 281 302 308 321 319 298 288 318 86 173 234 316 276 341 318 315 333 293 290 330 351 52 51 105 45 90 239 240 277 294 255 284 8 317 263 300 290 322 262 226 227 229 223
233 249 266 270 311 342 343 343 8 347 26 238 255 255 284 289 288 293 292 330 253 81 208 306 191 215 214 199 229 260 262 259 261 267 296 259 268 284 294 298 275 248 243 236 229
211 234 224 252 325 342 323 53 169 240 301 252 251 255 264 278 307 283 151 165 148 198 166 357 243 228 220 219 223 243 254 269 270 253 201 253 249 248 257 251 247 279 297 256 225
197 194 201 227 329 13 243 253 305 146 283 299 226 221 230 140 218 267 165 157 183 210 210 204 247 20 198 263 229 241 220 232 236 308 300 313 278 222 264 267 283 268 261 282 240
185 177 175 162 37 164 255 289 282 99 3 280 273 264 148 175 270 224 213 146 174 235 220 235 272 289 255 236 196 255 222 234 252 328 275 36 292 192 259 284 312 328 338 321 301
178 172 167 174 139 179 181 253 144 57 336 262 236 219 115 160 310 341 197 94 226 233 84 249 292 315 327 251 240 240 254 259 278 274 20 296 288 57 306 309 318 310 340 336 331
175 167 153 127 106 235 284 103 47 46 250 306 138 224 81 229 280 311 347 37 202 260 209 241 268 235 214 241 214 245 226 24 62 116 270 219 195 297 307 267 288 319 346 14 37
175 167 165 155 184 154 157 55 44 183 320 277 305 185 209 233 251 212 207 225 214 326 304 331 270 278 199 246 341 130 95 304 307 226 237 175 183 245 348 5 322 312 14 32 52
169 154 193 169 165 137 106 73 221 213 251 337 9 321 238 20 283 324 266 270 262 195 163 224 313 220 20 145 210 246 169 178 250 223 249 321 260 265 90 335 329 42 62 64 78
131 137 124 236 167 153 134 192 203 197 250 65 313 208 242 42 37 3 353 238 27 22 221 289 256 323 133 172 107 322 235 187 270 265 314 211 291 344 65 9 24 44 63 101 113
142 149 155 167 161 113 159 218 232 216 55 26 174 59 217 336 55 31 276 5 137 112 192 314 297 246 293 165 7 173 220 348 359 267 244 267 265 225 270 18 353 33 68 105 146
105 131 136 164 105 136 206 194 221 128 156 209 185 185 198 196 170 196 277 285 32 356 9 316 156 278 1 194 196 340 156 325 227 189 238 269 267 184 180 223 215 208 321 331 281
139 152 160 151 122 190 198 185 209 146 201 160 350 261 210 181 229 223 218 232 94 37 31 333 272 264 216 199 190 203 212 184 199 263 239 168 261 315 249 276 253 246 235 221 273
143 104 150 147 194 189 189 205 172 231 209 191 233 252 337 200 260 213 233 0 89 70 78 11 344 326 308 34 12 320 2 84 17 236 248 259 270 287 309 301 282 252 241 280 267
132 138 203 172 200 178 175 186 182 197 201 216 254 261 270 260 218 261 216 334 338 133 192 156 208 200 261 270 276 282 276 279 207 234 266 257 273 275 262 264 273 252 210 227 351
140 176 193 178 195 180 162 171 178 183 224 224 251 237 228 251 233 238 242 299 262 240 189 167 259 248 263 273 275 270 272 250 243 251 250 268 268 269 266 253 244 208 209 200 224
139 151 143 153 154 140 162 174 162 197 190 203 222 314 224 216 209 269 292 212 215 237 200 192 262 265 276 275 267 272 275 269 264 263 258 253 261 263 259 159 185 206 221 237 262
183 95 107 141 144 148 170 151 187 195 230 231 269 297 278 284 305 255 231 216 240 207 211 199 208 205 269 276 298 268 244 248 258 263 257 268 264 264 227 210 207 216 233 236 243